# Tabular Observed and Forecast Hydrograph Information
#
# Location: Indian Creek - Happy Camp (HAPC1)
#
# File Generation Time: 05/08/2026 at 08:15 AM PDT
# Data Interval: 1 Hour
#
# Most Recent Date & Time of Maximum Observed: 05/03/2026 at 01:00 PM PDT
# Maximum Observed Stage: 4.20 Feet
# Maximum Observed Flow: 193 cfs
#
# Earliest Date & Time of Maximum Forecast: 05/08/2026 at 09:00 AM PDT
# Maximum Forecast Stage: 4.08 Feet
# Maximum Forecast Flow: 165 cfs
#
# OBSERVED
#
# Date & Time (Local) Stage (Feet) Flow (cfs) Trend Observed Status
# ---------------------------------------------------------------------------------
05/03/2026 08 AM PDT 4.20 193 Normal
05/03/2026 09 AM PDT 4.20 193 0 Normal
05/03/2026 10 AM PDT 4.20 193 0 Normal
05/03/2026 11 AM PDT 4.20 193 0 Normal
05/03/2026 12 PM PDT 4.20 193 0 Normal
05/03/2026 01 PM PDT 4.20 193 0 Normal
05/03/2026 02 PM PDT 4.19 190 - Normal
05/03/2026 03 PM PDT 4.19 190 0 Normal
05/03/2026 04 PM PDT 4.19 190 0 Normal
05/03/2026 05 PM PDT 4.18 188 - Normal
05/03/2026 06 PM PDT 4.18 188 0 Normal
05/03/2026 07 PM PDT 4.17 185 - Normal
05/03/2026 08 PM PDT 4.18 188 + Normal
05/03/2026 09 PM PDT 4.18 188 0 Normal
05/03/2026 10 PM PDT 4.17 185 - Normal
05/03/2026 11 PM PDT 4.18 188 + Normal
05/04/2026 12 AM PDT 4.19 190 + Normal
05/04/2026 01 AM PDT 4.18 188 - Normal
05/04/2026 02 AM PDT 4.18 188 0 Normal
05/04/2026 03 AM PDT 4.19 190 + Normal
05/04/2026 04 AM PDT 4.19 190 0 Normal
05/04/2026 05 AM PDT 4.19 190 0 Normal
05/04/2026 06 AM PDT 4.19 190 0 Normal
05/04/2026 07 AM PDT 4.19 190 0 Normal
05/04/2026 08 AM PDT 4.19 190 0 Normal
05/04/2026 09 AM PDT 4.19 190 0 Normal
05/04/2026 10 AM PDT 4.19 190 0 Normal
05/04/2026 11 AM PDT 4.19 190 0 Normal
05/04/2026 12 PM PDT 4.19 190 0 Normal
05/04/2026 01 PM PDT 4.18 188 - Normal
05/04/2026 02 PM PDT 4.18 188 0 Normal
05/04/2026 03 PM PDT 4.17 185 - Normal
05/04/2026 04 PM PDT 4.17 185 0 Normal
05/04/2026 05 PM PDT 4.18 188 + Normal
05/04/2026 06 PM PDT 4.17 185 - Normal
05/04/2026 07 PM PDT 4.17 185 0 Normal
05/04/2026 08 PM PDT 4.16 183 - Normal
05/04/2026 09 PM PDT 4.15 181 - Normal
05/04/2026 10 PM PDT 4.16 183 + Normal
05/04/2026 11 PM PDT 4.16 183 0 Normal
05/05/2026 12 AM PDT 4.16 183 0 Normal
05/05/2026 01 AM PDT 4.16 183 0 Normal
05/05/2026 02 AM PDT 4.16 183 0 Normal
05/05/2026 03 AM PDT 4.17 185 + Normal
05/05/2026 04 AM PDT 4.16 183 - Normal
05/05/2026 05 AM PDT 4.17 185 + Normal
05/05/2026 06 AM PDT 4.17 185 0 Normal
05/05/2026 07 AM PDT 4.17 185 0 Normal
05/05/2026 08 AM PDT 4.17 185 0 Normal
05/05/2026 09 AM PDT 4.17 185 0 Normal
05/05/2026 10 AM PDT 4.17 185 0 Normal
05/05/2026 11 AM PDT 4.17 185 0 Normal
05/05/2026 12 PM PDT 4.17 185 0 Normal
05/05/2026 01 PM PDT 4.16 183 - Normal
05/05/2026 02 PM PDT 4.16 183 0 Normal
05/05/2026 03 PM PDT 4.16 183 0 Normal
05/05/2026 04 PM PDT 4.15 181 - Normal
05/05/2026 05 PM PDT 4.14 178 - Normal
05/05/2026 06 PM PDT 4.14 178 0 Normal
05/05/2026 07 PM PDT 4.13 176 - Normal
05/05/2026 08 PM PDT 4.13 176 0 Normal
05/05/2026 09 PM PDT 4.12 174 - Normal
05/05/2026 10 PM PDT 4.12 174 0 Normal
05/05/2026 11 PM PDT 4.12 174 0 Normal
05/06/2026 12 AM PDT 4.13 176 + Normal
05/06/2026 01 AM PDT 4.13 176 0 Normal
05/06/2026 02 AM PDT 4.13 176 0 Normal
05/06/2026 03 AM PDT 4.14 178 + Normal
05/06/2026 04 AM PDT 4.14 178 0 Normal
05/06/2026 05 AM PDT 4.14 178 0 Normal
05/06/2026 06 AM PDT 4.13 176 - Normal
05/06/2026 07 AM PDT 4.14 178 + Normal
05/06/2026 08 AM PDT 4.14 178 0 Normal
05/06/2026 09 AM PDT 4.14 178 0 Normal
05/06/2026 10 AM PDT 4.14 178 0 Normal
05/06/2026 11 AM PDT 4.14 178 0 Normal
05/06/2026 12 PM PDT 4.14 178 0 Normal
05/06/2026 01 PM PDT 4.13 176 - Normal
05/06/2026 02 PM PDT 4.14 178 + Normal
05/06/2026 03 PM PDT 4.13 176 - Normal
05/06/2026 04 PM PDT 4.12 174 - Normal
05/06/2026 05 PM PDT 4.12 174 0 Normal
05/06/2026 06 PM PDT 4.11 172 - Normal
05/06/2026 07 PM PDT 4.11 172 0 Normal
05/06/2026 08 PM PDT 4.10 169 - Normal
05/06/2026 09 PM PDT 4.10 169 0 Normal
05/06/2026 10 PM PDT 4.10 169 0 Normal
05/06/2026 11 PM PDT 4.10 169 0 Normal
05/07/2026 12 AM PDT 4.10 169 0 Normal
05/07/2026 01 AM PDT 4.11 172 + Normal
05/07/2026 02 AM PDT 4.11 172 0 Normal
05/07/2026 03 AM PDT 4.11 172 0 Normal
05/07/2026 04 AM PDT 4.11 172 0 Normal
05/07/2026 05 AM PDT 4.11 172 0 Normal
05/07/2026 06 AM PDT 4.12 174 + Normal
05/07/2026 07 AM PDT 4.12 174 0 Normal
05/07/2026 08 AM PDT 4.12 174 0 Normal
05/07/2026 09 AM PDT 4.12 174 0 Normal
05/07/2026 10 AM PDT 4.12 174 0 Normal
05/07/2026 11 AM PDT 4.12 174 0 Normal
05/07/2026 12 PM PDT 4.12 174 0 Normal
05/07/2026 01 PM PDT 4.11 172 - Normal
05/07/2026 02 PM PDT 4.11 172 0 Normal
05/07/2026 03 PM PDT 4.11 172 0 Normal
05/07/2026 04 PM PDT 4.10 169 - Normal
05/07/2026 05 PM PDT 4.08 165 - Normal
05/07/2026 06 PM PDT 4.10 169 + Normal
05/07/2026 07 PM PDT 4.08 165 - Normal
05/07/2026 08 PM PDT 4.07 163 - Normal
05/07/2026 09 PM PDT 4.06 161 - Normal
05/07/2026 10 PM PDT 4.06 161 0 Normal
05/07/2026 11 PM PDT 4.07 163 + Normal
05/08/2026 12 AM PDT 4.07 163 0 Normal
05/08/2026 01 AM PDT 4.07 163 0 Normal
05/08/2026 02 AM PDT 4.07 163 0 Normal
05/08/2026 03 AM PDT 4.08 165 + Normal
05/08/2026 04 AM PDT 4.08 165 0 Normal
05/08/2026 05 AM PDT 4.08 165 0 Normal
05/08/2026 06 AM PDT 4.08 165 0 Normal
05/08/2026 07 AM PDT 4.08 165 0 Normal
05/08/2026 08 AM PDT 4.08 165 0 Normal
#
# FORECAST
#
# Date & Time (Local) Stage (Feet) Flow (cfs) Trend Forecast Status
# ---------------------------------------------------------------------------------
05/08/2026 09 AM PDT 4.08 165 Normal
05/08/2026 10 AM PDT 4.08 165 0 Normal
05/08/2026 11 AM PDT 4.08 165 0 Normal
05/08/2026 12 PM PDT 4.08 165 0 Normal
05/08/2026 01 PM PDT 4.07 163 - Normal
05/08/2026 02 PM PDT 4.07 163 0 Normal
05/08/2026 03 PM PDT 4.07 163 0 Normal
05/08/2026 04 PM PDT 4.07 163 0 Normal
05/08/2026 05 PM PDT 4.07 163 0 Normal
05/08/2026 06 PM PDT 4.07 163 0 Normal
05/08/2026 07 PM PDT 4.07 163 0 Normal
05/08/2026 08 PM PDT 4.07 163 0 Normal
05/08/2026 09 PM PDT 4.07 163 0 Normal
05/08/2026 10 PM PDT 4.07 163 0 Normal
05/08/2026 11 PM PDT 4.07 163 0 Normal
05/09/2026 12 AM PDT 4.07 163 0 Normal
05/09/2026 01 AM PDT 4.07 163 0 Normal
05/09/2026 02 AM PDT 4.07 163 0 Normal
05/09/2026 03 AM PDT 4.06 161 - Normal
05/09/2026 04 AM PDT 4.06 161 0 Normal
05/09/2026 05 AM PDT 4.06 161 0 Normal
05/09/2026 06 AM PDT 4.06 161 0 Normal
05/09/2026 07 AM PDT 4.06 161 0 Normal
05/09/2026 08 AM PDT 4.06 161 0 Normal
05/09/2026 09 AM PDT 4.06 161 0 Normal
05/09/2026 10 AM PDT 4.06 161 0 Normal
05/09/2026 11 AM PDT 4.06 161 0 Normal
05/09/2026 12 PM PDT 4.06 161 0 Normal
05/09/2026 01 PM PDT 4.06 161 0 Normal
05/09/2026 02 PM PDT 4.06 161 0 Normal
05/09/2026 03 PM PDT 4.05 158 - Normal
05/09/2026 04 PM PDT 4.05 158 0 Normal
05/09/2026 05 PM PDT 4.05 158 0 Normal
05/09/2026 06 PM PDT 4.05 158 0 Normal
05/09/2026 07 PM PDT 4.05 158 0 Normal
05/09/2026 08 PM PDT 4.05 158 0 Normal
05/09/2026 09 PM PDT 4.05 158 0 Normal
05/09/2026 10 PM PDT 4.05 158 0 Normal
05/09/2026 11 PM PDT 4.05 158 0 Normal
05/10/2026 12 AM PDT 4.05 158 0 Normal
05/10/2026 01 AM PDT 4.05 158 0 Normal
05/10/2026 02 AM PDT 4.05 158 0 Normal
05/10/2026 03 AM PDT 4.05 158 0 Normal
05/10/2026 04 AM PDT 4.05 158 0 Normal
05/10/2026 05 AM PDT 4.05 158 0 Normal
05/10/2026 06 AM PDT 4.04 156 - Normal
05/10/2026 07 AM PDT 4.04 156 0 Normal
05/10/2026 08 AM PDT 4.04 156 0 Normal
05/10/2026 09 AM PDT 4.04 156 0 Normal
05/10/2026 10 AM PDT 4.04 156 0 Normal
05/10/2026 11 AM PDT 4.04 156 0 Normal
05/10/2026 12 PM PDT 4.04 156 0 Normal
05/10/2026 01 PM PDT 4.04 156 0 Normal
05/10/2026 02 PM PDT 4.04 156 0 Normal
05/10/2026 03 PM PDT 4.04 156 0 Normal
05/10/2026 04 PM PDT 4.04 156 0 Normal
05/10/2026 05 PM PDT 4.04 156 0 Normal
05/10/2026 06 PM PDT 4.04 156 0 Normal
05/10/2026 07 PM PDT 4.04 156 0 Normal
05/10/2026 08 PM PDT 4.04 156 0 Normal
05/10/2026 09 PM PDT 4.04 156 0 Normal
05/10/2026 10 PM PDT 4.04 156 0 Normal
05/10/2026 11 PM PDT 4.03 154 - Normal
05/11/2026 12 AM PDT 4.03 154 0 Normal
05/11/2026 01 AM PDT 4.03 154 0 Normal
05/11/2026 02 AM PDT 4.03 154 0 Normal
05/11/2026 03 AM PDT 4.03 154 0 Normal
05/11/2026 04 AM PDT 4.03 154 0 Normal
05/11/2026 05 AM PDT 4.03 154 0 Normal
05/11/2026 06 AM PDT 4.03 154 0 Normal
05/11/2026 07 AM PDT 4.03 154 0 Normal
05/11/2026 08 AM PDT 4.03 154 0 Normal
05/11/2026 09 AM PDT 4.03 154 0 Normal
05/11/2026 10 AM PDT 4.03 154 0 Normal
05/11/2026 11 AM PDT 4.03 154 0 Normal
05/11/2026 12 PM PDT 4.03 154 0 Normal
05/11/2026 01 PM PDT 4.03 154 0 Normal
05/11/2026 02 PM PDT 4.03 154 0 Normal
05/11/2026 03 PM PDT 4.03 154 0 Normal
05/11/2026 04 PM PDT 4.02 152 - Normal
05/11/2026 05 PM PDT 4.02 152 0 Normal
05/11/2026 06 PM PDT 4.02 152 0 Normal
05/11/2026 07 PM PDT 4.02 152 0 Normal
05/11/2026 08 PM PDT 4.02 152 0 Normal
05/11/2026 09 PM PDT 4.02 152 0 Normal
05/11/2026 10 PM PDT 4.02 152 0 Normal
05/11/2026 11 PM PDT 4.02 152 0 Normal
05/12/2026 12 AM PDT 4.02 152 0 Normal
05/12/2026 01 AM PDT 4.02 152 0 Normal
05/12/2026 02 AM PDT 4.02 152 0 Normal
05/12/2026 03 AM PDT 4.02 152 0 Normal
05/12/2026 04 AM PDT 4.02 152 0 Normal
05/12/2026 05 AM PDT 4.02 152 0 Normal
05/12/2026 06 AM PDT 4.02 152 0 Normal
05/12/2026 07 AM PDT 4.02 152 0 Normal
05/12/2026 08 AM PDT 4.01 150 - Normal
05/12/2026 09 AM PDT 4.01 150 0 Normal
05/12/2026 10 AM PDT 4.01 150 0 Normal
05/12/2026 11 AM PDT 4.01 150 0 Normal
05/12/2026 12 PM PDT 4.01 150 0 Normal
05/12/2026 01 PM PDT 4.01 150 0 Normal
05/12/2026 02 PM PDT 4.01 150 0 Normal
05/12/2026 03 PM PDT 4.01 150 0 Normal
05/12/2026 04 PM PDT 4.01 150 0 Normal
05/12/2026 05 PM PDT 4.01 150 0 Normal
05/12/2026 06 PM PDT 4.01 150 0 Normal
05/12/2026 07 PM PDT 4.01 150 0 Normal
05/12/2026 08 PM PDT 4.01 150 0 Normal
05/12/2026 09 PM PDT 4.01 150 0 Normal
05/12/2026 10 PM PDT 4.01 150 0 Normal
05/12/2026 11 PM PDT 4.01 150 0 Normal
05/13/2026 12 AM PDT 4.01 150 0 Normal
05/13/2026 01 AM PDT 4.01 150 0 Normal
05/13/2026 02 AM PDT 4.00 148 - Normal
05/13/2026 03 AM PDT 4.00 148 0 Normal
05/13/2026 04 AM PDT 4.00 148 0 Normal
05/13/2026 05 AM PDT 4.00 148 0 Normal
#
# NOTE 1: Stages are rounded to the nearest hundredth (.01) of a foot.
# NOTE 2: Flows are rounded to the nearest (1) cfs.
# NOTE 3: Trends are determined using hourly change in unrounded stage and flow.
# NOTE 4: Maximum Values are determined using unrounded stage and flow.
|